[[{"header":{"parameterUnit":"m.s-1","parameterCategory":1,"la1":30.2991,"la2":30.254,"lo1":-89.0895,"lo2":-89.0444,"dy":0.0017,"dx":0.0017,"nx":28,"ny":28,"refTime":"2024-06-05T21:00:00:Z","depth":0,"parameterNumber":2,"parameterNumberName":"U-component_of_WINDS"},"data":[0,0,0,0,0,0,0,0,0,0,0,0,0,0,0,0,0,0,0,0,0,0,0,0,0,0,0,0,0,0,0,0,0,0,0,0,0,0,0,0,0,0,0,0,0,0,0,0,0,0,0,0,0,0,0,0,0,0,1.8564,1.8563,0,1.8508,1.8508,1.8507,1.8438,1.8437,1.8436,1.8435,1.8377,1.8377,1.8376,0,0,0,0,0,0,0,0,0,0,0,0,0,1.8609,1.8608,1.8564,1.8563,1.8563,1.8508,1.8508,1.8507,1.8438,1.8437,1.8435,1.8434,1.8378,1.8377,1.8376,0,0,0,0,0,0,0,0,0,0,0,0,0,1.8575,1.8608,1.8564,1.8522,1.8517,1.8509,1.8508,1.8507,1.8438,1.8437,1.8435,1.8433,1.8378,1.8377,1.8376,1.8405,0,0,1.8374,1.8374,0,0,0,0,0,0,0,0,1.8577,1.8573,1.8529,1.8525,1.852,1.8478,1.8502,1.8472,1.8439,1.8468,1.8434,1.8433,1.8412,1.8409,1.8402,1.8402,1.84,1.8374,1.8373,1.8373,1.8373,0,0,0,0,0,0,0,1.8579,1.8575,1.8542,1.8528,1.8523,1.8505,1.8498,1.8496,1.845,1.8466,1.846,1.8455,1.841,1.8403,1.84,1.8399,1.8374,1.8373,1.8373,1.8373,1.8416,1.8417,0,0,0,0,0,0,1.8588,1.8578,1.8544,1.854,1.8545,1.8505,1.8498,1.8493,1.845,1.8442,1.8456,1.8452,1.8405,1.8401,1.8398,1.8425,1.8373,1.8372,1.8372,1.8414,1.8416,1.8418,0,0,0,0,0,0,1.8589,1.8586,1.8546,1.8557,1.8551,1.8506,1.8502,1.8493,1.8486,1.8443,1.8434,1.8458,1.8403,1.8399,1.8403,1.8423,1.8372,1.8371,1.8412,1.8415,1.8417,1.8483,0,0,0,0,0,0,1.8591,1.8587,1.8598,1.8558,1.8551,1.8553,1.8503,1.8493,1.8485,1.8479,1.8442,1.8435,1.8402,1.8404,1.8402,1.8421,1.8371,1.841,1.8413,1.8416,1.8479,1.8488,1.8495,0,0,0,0,0,1.8593,1.8619,1.8598,1.8595,1.8564,1.8554,1.855,1.8511,1.8487,1.8497,1.8469,1.8436,1.8421,1.8405,1.8402,1.8421,1.8409,1.8412,1.8416,1.8475,1.8486,1.8495,0,0,0,0,0,0,1.8662,1.8613,1.859,1.8604,1.8584,1.8542,1.8554,1.8524,1.851,1.8505,1.8458,1.845,1.8459,1.8441,1.8424,1.8444,1.841,1.8413,1.8456,1.8466,1.8473,1.8477,1.837,0,0,0,0,0,1.8679,1.8676,1.8633,1.865,1.8641,1.86,1.8594,1.8566,1.8543,1.8534,1.8506,1.8485,1.8475,1.8469,1.8458,1.8476,1.8466,1.8487,1.8495,1.8502,1.8505,1.851,1.8518,1.843,1.843,1.8429,0,0,1.8715,1.8687,1.8688,1.8663,1.8644,1.8641,1.8593,1.8592,1.8589,1.8534,1.8535,1.8514,1.8487,1.8497,1.85,1.8482,1.8527,1.8507,1.8512,1.8511,1.8514,1.8523,1.853,1.8432,1.8432,1.8431,0,0,1.8776,1.8757,1.8767,1.8748,1.872,1.8691,1.8694,1.8657,1.864,1.8641,1.8599,1.8594,1.8579,1.856,1.8549,1.8601,1.8569,1.8599,1.864,1.8645,1.8652,1.8658,1.8674,1.8681,1.8602,1.8602,1.8602,0,1.8824,1.8818,1.8776,1.8777,1.8767,1.8716,1.8726,1.871,1.8679,1.8672,1.8652,1.863,1.8608,1.8612,1.8624,1.8618,1.8618,1.8602,1.8655,1.866,1.8665,1.868,1.8687,1.8606,1.8605,1.8605,1.8605,0,1.8876,1.8872,1.8884,1.8854,1.8845,1.8851,1.8809,1.8805,1.8777,1.8751,1.875,1.8722,1.8703,1.8702,1.8676,1.8702,1.8691,1.8664,1.8628,1.8678,1.8691,1.8697,1.8611,1.861,1.8609,1.8608,0,0,1.898,1.8927,1.8932,1.8916,1.888,1.8876,1.8878,1.8859,1.8855,1.8835,1.8834,1.8822,1.8795,1.8782,1.8753,1.8758,1.8798,1.873,1.8728,1.8742,1.8821,1.8841,1.8848,1.8777,1.8778,1.8779,1.8823,0,1.9034,1.9035,1.8997,1.9008,1.9002,1.8953,1.8955,1.8932,1.8907,1.8898,1.887,1.8861,1.8828,1.882,1.8823,1.8793,1.8813,1.879,1.8774,1.8774,1.8781,1.8856,1.8877,1.892,1.8828,1.8829,1.883,0,1.9097,1.9079,1.9089,1.905,1.9047,1.9049,1.9027,1.902,1.8992,1.8973,1.8958,1.8924,1.8922,1.8889,1.8883,1.8868,1.8859,1.8844,1.8844,1.884,1.8804,1.8851,1.8933,1.8938,1.8838,1.8837,1.8837,0,1.9169,1.9148,1.9151,1.914,1.9095,1.9097,1.9078,1.9049,1.9039,1.902,1.9013,1.8994,1.8983,1.8968,1.893,1.891,1.8928,1.8892,1.8911,1.8911,1.8916,1.8916,1.8995,1.8914,1.8914,1.8913,1.8913,0,1.9231,1.9239,1.9182,1.9184,1.919,1.9146,1.9153,1.913,1.9104,1.9099,1.9056,1.9052,1.9002,1.8992,1.8962,1.896,1.8956,1.894,1.8931,1.8943,1.8944,1.8935,1.893,1.8915,1.8915,1.8914,1.8914,0,1.9313,1.9275,1.9274,1.9232,1.9221,1.9227,1.919,1.9189,1.9161,1.9155,1.9151,1.9106,1.9092,1.9052,1.9028,1.9007,1.9014,1.9,1.9023,1.9017,1.9037,1.9035,1.9111,1.9118,1.9035,1.9036,1.9037,0,1.9354,1.9359,1.9316,1.9309,1.9292,1.9283,1.9272,1.9229,1.9219,1.9186,1.9189,1.9171,1.9154,1.9133,1.9098,1.9078,1.9062,1.909,1.9059,1.9069,1.9059,1.9059,1.9058,1.9096,1.9098,1.9098,1.9099,0,1.9431,1.9412,1.9398,1.9378,1.9366,1.9348,1.9327,1.9324,1.9275,1.9266,1.925,1.9237,1.9212,1.9194,1.9168,1.9147,1.9114,1.9109,1.9112,1.9123,1.9135,1.9126,1.904,1.9108,1.9107,1.9106,1.9106,1.9105,1.9492,1.9492,1.9462,1.9448,1.9427,1.9408,1.9404,1.9375,1.9362,1.9337,1.9312,1.9299,1.9269,1.9231,1.9213,1.92,1.9183,1.9188,1.9189,1.919,1.9194,1.9139,1.9196,1.9196,1.9195,1.9195,1.9195,0,1.9564,1.9542,1.9529,1.9501,1.9489,1.946,1.9435,1.9426,1.9415,1.939,1.9374,1.9355,1.9337,1.93,1.9278,1.9275,1.9259,1.927,1.9269,1.9264,1.9212,1.9211,1.9283,1.9283,1.9283,1.9283,1.9283,1.9283,1.96,1.9599,1.9576,1.9564,1.9541,1.9528,1.9515,1.9497,1.9476,1.9457,1.9442,1.9418,1.9387,1.9362,1.9343,1.9332,1.9325,1.9341,1.9326,1.9277,1.9269,1.926,1.9259,1.9341,1.9341,1.9378,1.9379,1.9379]},{"header":{"parameterUnit":"m.s-1","parameterCategory":1,"la1":30.2991,"la2":30.254,"lo1":-89.0895,"lo2":-89.0444,"dy":0.0017,"dx":0.0017,"nx":28,"ny":28,"refTime":"2024-06-05T21:00:00:Z","depth":0,"parameterNumber":3,"parameterNumberName":"V-component_of_WINDS"},"data":[0,0,0,0,0,0,0,0,0,0,0,0,0,0,0,0,0,0,0,0,0,0,0,0,0,0,0,0,0,0,0,0,0,0,0,0,0,0,0,0,0,0,0,0,0,0,0,0,0,0,0,0,0,0,0,0,0,0,5.0706,5.0707,0,5.0873,5.0875,5.0877,5.0884,5.0882,5.088,5.0878,5.1045,5.1051,5.1058,0,0,0,0,0,0,0,0,0,0,0,0,0,5.0385,5.0391,5.0705,5.0707,5.071,5.0873,5.0875,5.0877,5.0885,5.0882,5.088,5.0878,5.1043,5.1051,5.1058,0,0,0,0,0,0,0,0,0,0,0,0,0,5.0536,5.0393,5.0705,5.0733,5.0737,5.0872,5.0875,5.0878,5.0885,5.0882,5.0879,5.0876,5.1041,5.105,5.1059,5.1176,0,0,5.1088,5.1092,0,0,0,0,0,0,0,0,5.0527,5.0547,5.0727,5.0731,5.0736,5.0855,5.0823,5.0978,5.0886,5.0829,5.0878,5.0875,5.0984,5.0998,5.1036,5.1184,5.1191,5.1089,5.1095,5.1099,5.1101,0,0,0,0,0,0,0,5.0517,5.054,5.0771,5.0729,5.0735,5.0735,5.0753,5.0853,5.0921,5.0834,5.0835,5.0854,5.0986,5.1027,5.104,5.1194,5.1089,5.1097,5.1103,5.1106,5.1443,5.1446,0,0,0,0,0,0,5.0502,5.0531,5.0766,5.0777,5.0622,5.0743,5.0763,5.082,5.092,5.0932,5.0857,5.0854,5.1012,5.1029,5.1045,5.1187,5.1098,5.1107,5.1113,5.144,5.1444,5.1447,0,0,0,0,0,0,5.0495,5.0523,5.0759,5.0654,5.0685,5.0752,5.0815,5.0824,5.0865,5.0937,5.0949,5.0886,5.101,5.1032,5.1143,5.1193,5.1112,5.112,5.1436,5.1441,5.1445,5.1473,0,0,0,0,0,0,5.0486,5.052,5.0567,5.0655,5.069,5.0857,5.0818,5.083,5.0882,5.088,5.0968,5.098,5.101,5.1129,5.1153,5.1205,5.1127,5.1431,5.1438,5.1444,5.1468,5.1478,5.1487,0,0,0,0,0,5.0474,5.0568,5.0569,5.0598,5.0751,5.086,5.0879,5.0913,5.0886,5.0932,5.0978,5.0977,5.1184,5.114,5.1167,5.1223,5.1428,5.1436,5.1443,5.1463,5.1476,5.1487,0,0,0,0,0,0,5.0482,5.058,5.0583,5.0708,5.0776,5.0861,5.0921,5.0926,5.1001,5.0996,5.1033,5.1053,5.1163,5.1204,5.1154,5.1339,5.1303,5.1316,5.1309,5.1322,5.1331,5.1319,5.1135,0,0,0,0,0,5.0499,5.0581,5.0661,5.0764,5.0798,5.0853,5.0902,5.0922,5.0993,5.1021,5.1075,5.1142,5.1222,5.1274,5.1352,5.1473,5.1491,5.1524,5.1534,5.1541,5.1552,5.1617,5.1632,5.1471,5.1471,5.1471,0,0,5.0534,5.0597,5.0647,5.0767,5.0822,5.0904,5.0877,5.0966,5.1026,5.1034,5.1142,5.1184,5.1261,5.1377,5.1431,5.1415,5.16,5.1551,5.1556,5.1563,5.1626,5.1641,5.1654,5.1476,5.1476,5.1475,0,0,5.0639,5.0696,5.0787,5.0842,5.0925,5.0961,5.0983,5.1067,5.1095,5.1204,5.1211,5.1282,5.142,5.1474,5.1519,5.1642,5.1643,5.1666,5.1716,5.1779,5.1791,5.1803,5.1845,5.1859,5.1676,5.1676,5.1676,0,5.0672,5.0798,5.0833,5.0921,5.0973,5.0984,5.1075,5.1126,5.1229,5.1263,5.1244,5.1415,5.1468,5.1596,5.1625,5.1662,5.1686,5.1656,5.1787,5.1799,5.181,5.185,5.1866,5.1679,5.1678,5.1678,5.1678,0,5.0832,5.0919,5.0982,5.1083,5.1141,5.123,5.1276,5.1331,5.1345,5.1382,5.1491,5.1555,5.1644,5.1676,5.1691,5.1805,5.1792,5.1779,5.1743,5.1827,5.1865,5.1881,5.1682,5.1681,5.168,5.168,0,0,5.095,5.1067,5.1089,5.1134,5.1225,5.1292,5.1379,5.1468,5.1513,5.1583,5.1657,5.1771,5.1759,5.1811,5.1831,5.1886,5.1977,5.1866,5.1869,5.1883,5.2104,5.2113,5.2131,5.1977,5.1981,5.1983,5.2097,0,5.1064,5.1223,5.1256,5.1392,5.1471,5.1481,5.1557,5.162,5.1656,5.1727,5.1766,5.1846,5.1825,5.1856,5.1911,5.1954,5.2021,5.1946,5.2044,5.2047,5.2024,5.2151,5.2161,5.2266,5.2113,5.2115,5.2117,0,5.122,5.1294,5.1438,5.1517,5.1551,5.1619,5.1702,5.177,5.184,5.1862,5.1918,5.1932,5.2021,5.198,5.2102,5.205,5.2091,5.2118,5.2123,5.2133,5.2087,5.2163,5.2301,5.2316,5.2142,5.214,5.2138,0,5.1289,5.1425,5.1528,5.1566,5.1661,5.1708,5.1749,5.1816,5.1866,5.1938,5.197,5.205,5.2094,5.2154,5.2188,5.2156,5.2307,5.2269,5.2326,5.2325,5.2357,5.2355,5.2502,5.2385,5.2385,5.2384,5.2384,0,5.1413,5.1501,5.156,5.1624,5.1721,5.1756,5.1851,5.1891,5.1951,5.202,5.2033,5.2098,5.2139,5.2209,5.2236,5.2331,5.2351,5.237,5.2376,5.2369,5.2366,5.2396,5.2389,5.2389,5.2388,5.2387,5.2386,0,5.1507,5.1551,5.1664,5.1744,5.1765,5.1833,5.19,5.1961,5.1996,5.2084,5.2107,5.2162,5.2244,5.2284,5.2387,5.2404,5.2512,5.2513,5.2489,5.2491,5.2545,5.2539,5.2716,5.274,5.2608,5.2609,5.261,0,5.1583,5.1651,5.1737,5.1786,5.1828,5.1906,5.1957,5.1993,5.2045,5.2128,5.2178,5.2262,5.233,5.2461,5.2509,5.2587,5.2589,5.2646,5.2601,5.2591,5.2589,5.2584,5.259,5.2654,5.2655,5.2656,5.2657,0,5.1713,5.1731,5.1805,5.1887,5.1947,5.2013,5.2077,5.2115,5.2161,5.2218,5.2304,5.2357,5.2461,5.2542,5.2623,5.2663,5.2667,5.2671,5.2688,5.2681,5.2663,5.2672,5.251,5.2667,5.2666,5.2665,5.2665,5.2664,5.18,5.186,5.193,5.2011,5.2063,5.2122,5.2182,5.2225,5.2297,5.2385,5.2401,5.2491,5.2556,5.2665,5.2707,5.2776,5.2763,5.2788,5.2794,5.28,5.2802,5.2653,5.2791,5.2791,5.2791,5.279,5.279,0,5.193,5.1975,5.2049,5.2139,5.2202,5.2201,5.2271,5.2323,5.2403,5.2464,5.2531,5.2627,5.2706,5.2759,5.2838,5.2883,5.2887,5.2902,5.2899,5.2908,5.281,5.2787,5.2898,5.2898,5.2898,5.2898,5.2898,5.2898,5.2005,5.2105,5.2131,5.2255,5.2299,5.2388,5.2428,5.2481,5.253,5.2637,5.2703,5.2737,5.2795,5.2878,5.2949,5.2962,5.299,5.3006,5.3019,5.2926,5.2915,5.2904,5.2883,5.3012,5.3012,5.3111,5.3112,5.3112]}]]